Index of /20260505/WXO-DD/model_caps/3km/12/024
Name Last modified Size Description
Parent Directory -
20260505T12Z_MSC_CAPS_AbsoluteVorticity_IsbL-0250_RLatLon0.03_PT024H.grib2 2026-05-05 18:14 1.0M
20260505T12Z_MSC_CAPS_AbsoluteVorticity_IsbL-0500_RLatLon0.03_PT024H.grib2 2026-05-05 18:14 1.1M
20260505T12Z_MSC_CAPS_AbsoluteVorticity_IsbL-0700_RLatLon0.03_PT024H.grib2 2026-05-05 18:14 1.3M
20260505T12Z_MSC_CAPS_AbsoluteVorticity_IsbL-0850_RLatLon0.03_PT024H.grib2 2026-05-05 18:14 1.3M
20260505T12Z_MSC_CAPS_AbsoluteVorticity_IsbL-1000_RLatLon0.03_PT024H.grib2 2026-05-05 18:14 1.4M
20260505T12Z_MSC_CAPS_AirDensity_AGL-120m_RLatLon0.03_PT024H.grib2 2026-05-05 18:14 1.4M
20260505T12Z_MSC_CAPS_AirDensity_AGL-40m_RLatLon0.03_PT024H.grib2 2026-05-05 18:14 1.4M
20260505T12Z_MSC_CAPS_AirDensity_AGL-80m_RLatLon0.03_PT024H.grib2 2026-05-05 18:14 1.4M
20260505T12Z_MSC_CAPS_AirTemp_AGL-120m_RLatLon0.03_PT024H.grib2 2026-05-05 18:14 1.4M
20260505T12Z_MSC_CAPS_AirTemp_AGL-2m_RLatLon0.03_PT024H.grib2 2026-05-05 18:14 1.7M
20260505T12Z_MSC_CAPS_AirTemp_AGL-40m_RLatLon0.03_PT024H.grib2 2026-05-05 18:14 1.5M
20260505T12Z_MSC_CAPS_AirTemp_AGL-80m_RLatLon0.03_PT024H.grib2 2026-05-05 18:14 1.5M
20260505T12Z_MSC_CAPS_AirTemp_IsbL-0050_RLatLon0.03_PT024H.grib2 2026-05-05 18:14 692K
20260505T12Z_MSC_CAPS_AirTemp_IsbL-0100_RLatLon0.03_PT024H.grib2 2026-05-05 18:14 954K
20260505T12Z_MSC_CAPS_AirTemp_IsbL-0150_RLatLon0.03_PT024H.grib2 2026-05-05 18:14 749K
20260505T12Z_MSC_CAPS_AirTemp_IsbL-0175_RLatLon0.03_PT024H.grib2 2026-05-05 18:14 779K
20260505T12Z_MSC_CAPS_AirTemp_IsbL-0200_RLatLon0.03_PT024H.grib2 2026-05-05 18:14 804K
20260505T12Z_MSC_CAPS_AirTemp_IsbL-0225_RLatLon0.03_PT024H.grib2 2026-05-05 18:14 803K
20260505T12Z_MSC_CAPS_AirTemp_IsbL-0250_RLatLon0.03_PT024H.grib2 2026-05-05 18:14 1.0M
20260505T12Z_MSC_CAPS_AirTemp_IsbL-0275_RLatLon0.03_PT024H.grib2 2026-05-05 18:14 1.0M
20260505T12Z_MSC_CAPS_AirTemp_IsbL-0300_RLatLon0.03_PT024H.grib2 2026-05-05 18:14 1.0M
20260505T12Z_MSC_CAPS_AirTemp_IsbL-0350_RLatLon0.03_PT024H.grib2 2026-05-05 18:14 760K
20260505T12Z_MSC_CAPS_AirTemp_IsbL-0400_RLatLon0.03_PT024H.grib2 2026-05-05 18:14 767K
20260505T12Z_MSC_CAPS_AirTemp_IsbL-0450_RLatLon0.03_PT024H.grib2 2026-05-05 18:14 780K
20260505T12Z_MSC_CAPS_AirTemp_IsbL-0500_RLatLon0.03_PT024H.grib2 2026-05-05 18:14 793K
20260505T12Z_MSC_CAPS_AirTemp_IsbL-0550_RLatLon0.03_PT024H.grib2 2026-05-05 18:14 805K
20260505T12Z_MSC_CAPS_AirTemp_IsbL-0600_RLatLon0.03_PT024H.grib2 2026-05-05 18:14 828K
20260505T12Z_MSC_CAPS_AirTemp_IsbL-0650_RLatLon0.03_PT024H.grib2 2026-05-05 18:14 861K
20260505T12Z_MSC_CAPS_AirTemp_IsbL-0700_RLatLon0.03_PT024H.grib2 2026-05-05 18:14 900K
20260505T12Z_MSC_CAPS_AirTemp_IsbL-0750_RLatLon0.03_PT024H.grib2 2026-05-05 18:14 1.0M
20260505T12Z_MSC_CAPS_AirTemp_IsbL-0800_RLatLon0.03_PT024H.grib2 2026-05-05 18:14 1.1M
20260505T12Z_MSC_CAPS_AirTemp_IsbL-0850_RLatLon0.03_PT024H.grib2 2026-05-05 18:14 1.1M
20260505T12Z_MSC_CAPS_AirTemp_IsbL-0875_RLatLon0.03_PT024H.grib2 2026-05-05 18:14 1.1M
20260505T12Z_MSC_CAPS_AirTemp_IsbL-0900_RLatLon0.03_PT024H.grib2 2026-05-05 18:14 1.1M
20260505T12Z_MSC_CAPS_AirTemp_IsbL-0925_RLatLon0.03_PT024H.grib2 2026-05-05 18:14 1.2M
20260505T12Z_MSC_CAPS_AirTemp_IsbL-0950_RLatLon0.03_PT024H.grib2 2026-05-05 18:14 1.1M
20260505T12Z_MSC_CAPS_AirTemp_IsbL-0970_RLatLon0.03_PT024H.grib2 2026-05-05 18:14 1.1M
20260505T12Z_MSC_CAPS_AirTemp_IsbL-0985_RLatLon0.03_PT024H.grib2 2026-05-05 18:14 1.1M
20260505T12Z_MSC_CAPS_AirTemp_IsbL-1000_RLatLon0.03_PT024H.grib2 2026-05-05 18:14 1.0M
20260505T12Z_MSC_CAPS_AirTemp_IsbL-1015_RLatLon0.03_PT024H.grib2 2026-05-05 18:14 1.1M
20260505T12Z_MSC_CAPS_Albedo_Sfc_RLatLon0.03_PT024H.grib2 2026-05-05 18:14 2.7M
20260505T12Z_MSC_CAPS_CAPE_Sfc_RLatLon0.03_PT024H.grib2 2026-05-05 18:14 240K
20260505T12Z_MSC_CAPS_CloudWater_EAtm_RLatLon0.03_PT024H.grib2 2026-05-05 18:14 1.5M
20260505T12Z_MSC_CAPS_ConvectivePrecip-Accum_Sfc_RLatLon0.03_PT024H.grib2 2026-05-05 18:14 3.7M
20260505T12Z_MSC_CAPS_DewPointDepression_AGL-120m_RLatLon0.03_PT024H.grib2 2026-05-05 18:14 2.2M
20260505T12Z_MSC_CAPS_DewPointDepression_AGL-2m_RLatLon0.03_PT024H.grib2 2026-05-05 18:14 2.2M
20260505T12Z_MSC_CAPS_DewPointDepression_AGL-40m_RLatLon0.03_PT024H.grib2 2026-05-05 18:14 2.2M
20260505T12Z_MSC_CAPS_DewPointDepression_AGL-80m_RLatLon0.03_PT024H.grib2 2026-05-05 18:14 2.2M
20260505T12Z_MSC_CAPS_DewPointDepression_IsbL-0050_RLatLon0.03_PT024H.grib2 2026-05-05 18:14 3.2K
20260505T12Z_MSC_CAPS_DewPointDepression_IsbL-0100_RLatLon0.03_PT024H.grib2 2026-05-05 18:14 58K
20260505T12Z_MSC_CAPS_DewPointDepression_IsbL-0150_RLatLon0.03_PT024H.grib2 2026-05-05 18:14 51K
20260505T12Z_MSC_CAPS_DewPointDepression_IsbL-0175_RLatLon0.03_PT024H.grib2 2026-05-05 18:14 217K
20260505T12Z_MSC_CAPS_DewPointDepression_IsbL-0200_RLatLon0.03_PT024H.grib2 2026-05-05 18:14 409K
20260505T12Z_MSC_CAPS_DewPointDepression_IsbL-0225_RLatLon0.03_PT024H.grib2 2026-05-05 18:14 612K
20260505T12Z_MSC_CAPS_DewPointDepression_IsbL-0250_RLatLon0.03_PT024H.grib2 2026-05-05 18:14 855K
20260505T12Z_MSC_CAPS_DewPointDepression_IsbL-0275_RLatLon0.03_PT024H.grib2 2026-05-05 18:14 1.0M
20260505T12Z_MSC_CAPS_DewPointDepression_IsbL-0300_RLatLon0.03_PT024H.grib2 2026-05-05 18:14 1.1M
20260505T12Z_MSC_CAPS_DewPointDepression_IsbL-0350_RLatLon0.03_PT024H.grib2 2026-05-05 18:14 1.1M
20260505T12Z_MSC_CAPS_DewPointDepression_IsbL-0400_RLatLon0.03_PT024H.grib2 2026-05-05 18:14 1.1M
20260505T12Z_MSC_CAPS_DewPointDepression_IsbL-0450_RLatLon0.03_PT024H.grib2 2026-05-05 18:14 1.2M
20260505T12Z_MSC_CAPS_DewPointDepression_IsbL-0500_RLatLon0.03_PT024H.grib2 2026-05-05 18:14 1.2M
20260505T12Z_MSC_CAPS_DewPointDepression_IsbL-0550_RLatLon0.03_PT024H.grib2 2026-05-05 18:14 1.2M
20260505T12Z_MSC_CAPS_DewPointDepression_IsbL-0600_RLatLon0.03_PT024H.grib2 2026-05-05 18:14 1.3M
20260505T12Z_MSC_CAPS_DewPointDepression_IsbL-0650_RLatLon0.03_PT024H.grib2 2026-05-05 18:14 1.3M
20260505T12Z_MSC_CAPS_DewPointDepression_IsbL-0700_RLatLon0.03_PT024H.grib2 2026-05-05 18:14 1.3M
20260505T12Z_MSC_CAPS_DewPointDepression_IsbL-0750_RLatLon0.03_PT024H.grib2 2026-05-05 18:14 1.3M
20260505T12Z_MSC_CAPS_DewPointDepression_IsbL-0800_RLatLon0.03_PT024H.grib2 2026-05-05 18:14 1.3M
20260505T12Z_MSC_CAPS_DewPointDepression_IsbL-0850_RLatLon0.03_PT024H.grib2 2026-05-05 18:14 1.4M
20260505T12Z_MSC_CAPS_DewPointDepression_IsbL-0875_RLatLon0.03_PT024H.grib2 2026-05-05 18:14 1.4M
20260505T12Z_MSC_CAPS_DewPointDepression_IsbL-0900_RLatLon0.03_PT024H.grib2 2026-05-05 18:14 1.4M
20260505T12Z_MSC_CAPS_DewPointDepression_IsbL-0925_RLatLon0.03_PT024H.grib2 2026-05-05 18:14 1.4M
20260505T12Z_MSC_CAPS_DewPointDepression_IsbL-0950_RLatLon0.03_PT024H.grib2 2026-05-05 18:14 1.4M
20260505T12Z_MSC_CAPS_DewPointDepression_IsbL-0970_RLatLon0.03_PT024H.grib2 2026-05-05 18:14 1.4M
20260505T12Z_MSC_CAPS_DewPointDepression_IsbL-0985_RLatLon0.03_PT024H.grib2 2026-05-05 18:14 1.4M
20260505T12Z_MSC_CAPS_DewPointDepression_IsbL-1000_RLatLon0.03_PT024H.grib2 2026-05-05 18:14 1.4M
20260505T12Z_MSC_CAPS_DewPointDepression_IsbL-1015_RLatLon0.03_PT024H.grib2 2026-05-05 18:14 1.4M
20260505T12Z_MSC_CAPS_DewPoint_AGL-120m_RLatLon0.03_PT024H.grib2 2026-05-05 18:14 3.7M
20260505T12Z_MSC_CAPS_DewPoint_AGL-2m_RLatLon0.03_PT024H.grib2 2026-05-05 18:14 1.8M
20260505T12Z_MSC_CAPS_DewPoint_AGL-40m_RLatLon0.03_PT024H.grib2 2026-05-05 18:14 3.8M
20260505T12Z_MSC_CAPS_DewPoint_AGL-80m_RLatLon0.03_PT024H.grib2 2026-05-05 18:14 3.7M
20260505T12Z_MSC_CAPS_DownwardLongwaveRadiationFlux-Accum_Sfc_RLatLon0.03_PT024H.grib2 2026-05-05 18:14 2.3M
20260505T12Z_MSC_CAPS_DownwardShortwaveRadiationFlux-Accum_NTAtm_RLatLon0.03_PT024H.grib2 2026-05-05 18:14 550K
20260505T12Z_MSC_CAPS_DownwardShortwaveRadiationFlux-Accum_Sfc_RLatLon0.03_PT024H.grib2 2026-05-05 18:14 3.2M
20260505T12Z_MSC_CAPS_FreezingRain-Accum_Sfc_RLatLon0.03_PT024H.grib2 2026-05-05 18:14 825K
20260505T12Z_MSC_CAPS_GeopotentialHeight_IsbL-0050_RLatLon0.03_PT024H.grib2 2026-05-05 18:14 822K
20260505T12Z_MSC_CAPS_GeopotentialHeight_IsbL-0100_RLatLon0.03_PT024H.grib2 2026-05-05 18:14 815K
20260505T12Z_MSC_CAPS_GeopotentialHeight_IsbL-0150_RLatLon0.03_PT024H.grib2 2026-05-05 18:14 602K
20260505T12Z_MSC_CAPS_GeopotentialHeight_IsbL-0175_RLatLon0.03_PT024H.grib2 2026-05-05 18:14 718K
20260505T12Z_MSC_CAPS_GeopotentialHeight_IsbL-0200_RLatLon0.03_PT024H.grib2 2026-05-05 18:14 738K
20260505T12Z_MSC_CAPS_GeopotentialHeight_IsbL-0225_RLatLon0.03_PT024H.grib2 2026-05-05 18:14 751K
20260505T12Z_MSC_CAPS_GeopotentialHeight_IsbL-0250_RLatLon0.03_PT024H.grib2 2026-05-05 18:14 764K
20260505T12Z_MSC_CAPS_GeopotentialHeight_IsbL-0275_RLatLon0.03_PT024H.grib2 2026-05-05 18:14 775K
20260505T12Z_MSC_CAPS_GeopotentialHeight_IsbL-0300_RLatLon0.03_PT024H.grib2 2026-05-05 18:14 780K
20260505T12Z_MSC_CAPS_GeopotentialHeight_IsbL-0350_RLatLon0.03_PT024H.grib2 2026-05-05 18:14 780K
20260505T12Z_MSC_CAPS_GeopotentialHeight_IsbL-0400_RLatLon0.03_PT024H.grib2 2026-05-05 18:14 776K
20260505T12Z_MSC_CAPS_GeopotentialHeight_IsbL-0450_RLatLon0.03_PT024H.grib2 2026-05-05 18:14 771K
20260505T12Z_MSC_CAPS_GeopotentialHeight_IsbL-0500_RLatLon0.03_PT024H.grib2 2026-05-05 18:14 764K
20260505T12Z_MSC_CAPS_GeopotentialHeight_IsbL-0550_RLatLon0.03_PT024H.grib2 2026-05-05 18:14 645K
20260505T12Z_MSC_CAPS_GeopotentialHeight_IsbL-0600_RLatLon0.03_PT024H.grib2 2026-05-05 18:14 639K
20260505T12Z_MSC_CAPS_GeopotentialHeight_IsbL-0650_RLatLon0.03_PT024H.grib2 2026-05-05 18:14 815K
20260505T12Z_MSC_CAPS_GeopotentialHeight_IsbL-0700_RLatLon0.03_PT024H.grib2 2026-05-05 18:14 813K
20260505T12Z_MSC_CAPS_GeopotentialHeight_IsbL-0750_RLatLon0.03_PT024H.grib2 2026-05-05 18:14 814K
20260505T12Z_MSC_CAPS_GeopotentialHeight_IsbL-0800_RLatLon0.03_PT024H.grib2 2026-05-05 18:14 901K
20260505T12Z_MSC_CAPS_GeopotentialHeight_IsbL-0850_RLatLon0.03_PT024H.grib2 2026-05-05 18:14 832K
20260505T12Z_MSC_CAPS_GeopotentialHeight_IsbL-0875_RLatLon0.03_PT024H.grib2 2026-05-05 18:14 839K
20260505T12Z_MSC_CAPS_GeopotentialHeight_IsbL-0900_RLatLon0.03_PT024H.grib2 2026-05-05 18:14 847K
20260505T12Z_MSC_CAPS_GeopotentialHeight_IsbL-0925_RLatLon0.03_PT024H.grib2 2026-05-05 18:14 855K
20260505T12Z_MSC_CAPS_GeopotentialHeight_IsbL-0950_RLatLon0.03_PT024H.grib2 2026-05-05 18:14 858K
20260505T12Z_MSC_CAPS_GeopotentialHeight_IsbL-0970_RLatLon0.03_PT024H.grib2 2026-05-05 18:14 874K
20260505T12Z_MSC_CAPS_GeopotentialHeight_IsbL-0985_RLatLon0.03_PT024H.grib2 2026-05-05 18:14 883K
20260505T12Z_MSC_CAPS_GeopotentialHeight_IsbL-1000_RLatLon0.03_PT024H.grib2 2026-05-05 18:14 893K
20260505T12Z_MSC_CAPS_GeopotentialHeight_IsbL-1015_RLatLon0.03_PT024H.grib2 2026-05-05 18:14 903K
20260505T12Z_MSC_CAPS_GeopotentialHeight_Sfc_RLatLon0.03_PT024H.grib2 2026-05-05 18:14 1.0M
20260505T12Z_MSC_CAPS_IcePellets-Accum_Sfc_RLatLon0.03_PT024H.grib2 2026-05-05 18:14 104K
20260505T12Z_MSC_CAPS_LatentHeatNetFlux_Sfc_RLatLon0.03_PT024H.grib2 2026-05-05 18:14 1.9M
20260505T12Z_MSC_CAPS_LiftedIndex-MU-VT_IsbL-0500_RLatLon0.03_PT024H.grib2 2026-05-05 18:14 3.3M
20260505T12Z_MSC_CAPS_MixedLayerThickness_Sfc_RLatLon0.03_PT024H.nc 2026-05-05 18:13 16M
20260505T12Z_MSC_CAPS_NetLongwaveRadiationFlux-Accum_Sfc_RLatLon0.03_PT024H.grib2 2026-05-05 18:14 3.1M
20260505T12Z_MSC_CAPS_NetShortwaveRadiationFlux-Accum_Sfc_RLatLon0.03_PT024H.grib2 2026-05-05 18:14 3.2M
20260505T12Z_MSC_CAPS_PlanetaryBoundaryLayerHeight_Sfc_RLatLon0.03_PT024H.grib2 2026-05-05 18:14 2.6M
20260505T12Z_MSC_CAPS_Precip-Accum_Sfc_RLatLon0.03_PT024H.grib2 2026-05-05 18:14 4.7M
20260505T12Z_MSC_CAPS_PrecipRate_Sfc_RLatLon0.03_PT024H.grib2 2026-05-05 18:14 648K
20260505T12Z_MSC_CAPS_PrecipType-Instant_Sfc_RLatLon0.03_PT024H.grib2 2026-05-05 18:14 2.1M
20260505T12Z_MSC_CAPS_Pressure_MSL_RLatLon0.03_PT024H.grib2 2026-05-05 18:14 927K
20260505T12Z_MSC_CAPS_Pressure_Sfc_RLatLon0.03_PT024H.grib2 2026-05-05 18:14 1.2M
20260505T12Z_MSC_CAPS_RadiativeTemp_Sfc_RLatLon0.03_PT024H.grib2 2026-05-05 18:14 2.1M
20260505T12Z_MSC_CAPS_Rain-Accum_Sfc_RLatLon0.03_PT024H.grib2 2026-05-05 18:14 2.5M
20260505T12Z_MSC_CAPS_RelativeHumidity_AGL-120m_RLatLon0.03_PT024H.grib2 2026-05-05 18:14 2.9M
20260505T12Z_MSC_CAPS_RelativeHumidity_AGL-2m_RLatLon0.03_PT024H.grib2 2026-05-05 18:14 3.0M
20260505T12Z_MSC_CAPS_RelativeHumidity_AGL-40m_RLatLon0.03_PT024H.grib2 2026-05-05 18:14 2.9M
20260505T12Z_MSC_CAPS_RelativeHumidity_AGL-80m_RLatLon0.03_PT024H.grib2 2026-05-05 18:14 2.9M
20260505T12Z_MSC_CAPS_RelativeHumidity_IsbL-0050_RLatLon0.03_PT024H.grib2 2026-05-05 18:14 971K
20260505T12Z_MSC_CAPS_RelativeHumidity_IsbL-0100_RLatLon0.03_PT024H.grib2 2026-05-05 18:14 861K
20260505T12Z_MSC_CAPS_RelativeHumidity_IsbL-0150_RLatLon0.03_PT024H.grib2 2026-05-05 18:14 726K
20260505T12Z_MSC_CAPS_RelativeHumidity_IsbL-0175_RLatLon0.03_PT024H.grib2 2026-05-05 18:14 469K
20260505T12Z_MSC_CAPS_RelativeHumidity_IsbL-0200_RLatLon0.03_PT024H.grib2 2026-05-05 18:14 660K
20260505T12Z_MSC_CAPS_RelativeHumidity_IsbL-0225_RLatLon0.03_PT024H.grib2 2026-05-05 18:14 898K
20260505T12Z_MSC_CAPS_RelativeHumidity_IsbL-0250_RLatLon0.03_PT024H.grib2 2026-05-05 18:14 1.1M
20260505T12Z_MSC_CAPS_RelativeHumidity_IsbL-0275_RLatLon0.03_PT024H.grib2 2026-05-05 18:14 1.4M
20260505T12Z_MSC_CAPS_RelativeHumidity_IsbL-0300_RLatLon0.03_PT024H.grib2 2026-05-05 18:14 1.7M
20260505T12Z_MSC_CAPS_RelativeHumidity_IsbL-0350_RLatLon0.03_PT024H.grib2 2026-05-05 18:14 2.0M
20260505T12Z_MSC_CAPS_RelativeHumidity_IsbL-0400_RLatLon0.03_PT024H.grib2 2026-05-05 18:14 1.9M
20260505T12Z_MSC_CAPS_RelativeHumidity_IsbL-0450_RLatLon0.03_PT024H.grib2 2026-05-05 18:14 2.0M
20260505T12Z_MSC_CAPS_RelativeHumidity_IsbL-0500_RLatLon0.03_PT024H.grib2 2026-05-05 18:14 2.0M
20260505T12Z_MSC_CAPS_RelativeHumidity_IsbL-0550_RLatLon0.03_PT024H.grib2 2026-05-05 18:14 2.1M
20260505T12Z_MSC_CAPS_RelativeHumidity_IsbL-0600_RLatLon0.03_PT024H.grib2 2026-05-05 18:14 2.1M
20260505T12Z_MSC_CAPS_RelativeHumidity_IsbL-0650_RLatLon0.03_PT024H.grib2 2026-05-05 18:14 2.3M
20260505T12Z_MSC_CAPS_RelativeHumidity_IsbL-0700_RLatLon0.03_PT024H.grib2 2026-05-05 18:14 2.3M
20260505T12Z_MSC_CAPS_RelativeHumidity_IsbL-0750_RLatLon0.03_PT024H.grib2 2026-05-05 18:14 2.4M
20260505T12Z_MSC_CAPS_RelativeHumidity_IsbL-0800_RLatLon0.03_PT024H.grib2 2026-05-05 18:14 2.5M
20260505T12Z_MSC_CAPS_RelativeHumidity_IsbL-0850_RLatLon0.03_PT024H.grib2 2026-05-05 18:14 2.6M
20260505T12Z_MSC_CAPS_RelativeHumidity_IsbL-0875_RLatLon0.03_PT024H.grib2 2026-05-05 18:14 2.7M
20260505T12Z_MSC_CAPS_RelativeHumidity_IsbL-0900_RLatLon0.03_PT024H.grib2 2026-05-05 18:14 2.7M
20260505T12Z_MSC_CAPS_RelativeHumidity_IsbL-0925_RLatLon0.03_PT024H.grib2 2026-05-05 18:14 2.7M
20260505T12Z_MSC_CAPS_RelativeHumidity_IsbL-0950_RLatLon0.03_PT024H.grib2 2026-05-05 18:14 2.8M
20260505T12Z_MSC_CAPS_RelativeHumidity_IsbL-0970_RLatLon0.03_PT024H.grib2 2026-05-05 18:14 2.9M
20260505T12Z_MSC_CAPS_RelativeHumidity_IsbL-0985_RLatLon0.03_PT024H.grib2 2026-05-05 18:14 2.9M
20260505T12Z_MSC_CAPS_RelativeHumidity_IsbL-1000_RLatLon0.03_PT024H.grib2 2026-05-05 18:14 3.0M
20260505T12Z_MSC_CAPS_RelativeHumidity_IsbL-1015_RLatLon0.03_PT024H.grib2 2026-05-05 18:14 3.0M
20260505T12Z_MSC_CAPS_Runoff-Accum_Sfc_RLatLon0.03_PT024H.grib2 2026-05-05 18:14 342K
20260505T12Z_MSC_CAPS_SeaIceAreaFraction_Sfc_RLatLon0.03_PT024H.nc 2026-05-05 18:13 15M
20260505T12Z_MSC_CAPS_SeaIceCompressiveStrength_Sfc_RLatLon0.03_PT024H.nc 2026-05-05 18:13 15M
20260505T12Z_MSC_CAPS_SeaIceDivergence_Sfc_RLatLon0.03_PT024H.nc 2026-05-05 18:13 15M
20260505T12Z_MSC_CAPS_SeaIceInternalPressure_Sfc_RLatLon0.03_PT024H.nc 2026-05-05 18:13 15M
20260505T12Z_MSC_CAPS_SeaIceShear_Sfc_RLatLon0.03_PT024H.nc 2026-05-05 18:13 14M
20260505T12Z_MSC_CAPS_SeaIceSnowTemp_Sfc_RLatLon0.03_PT024H.nc 2026-05-05 18:13 14M
20260505T12Z_MSC_CAPS_SeaIceSnowVolume_Sfc_RLatLon0.03_PT024H.nc 2026-05-05 18:13 15M
20260505T12Z_MSC_CAPS_SeaIceVelocityX_Sfc_RLatLon0.03_PT024H.nc 2026-05-05 18:13 15M
20260505T12Z_MSC_CAPS_SeaIceVelocityY_Sfc_RLatLon0.03_PT024H.nc 2026-05-05 18:13 15M
20260505T12Z_MSC_CAPS_SeaIceVolume_Sfc_RLatLon0.03_PT024H.nc 2026-05-05 18:13 15M
20260505T12Z_MSC_CAPS_SeaSurfaceHeight_Sfc_RLatLon0.03_PT024H.nc 2026-05-05 18:13 16M
20260505T12Z_MSC_CAPS_SeaWaterSalinity_DBS-0.5m_RLatLon0.03_PT024H.nc 2026-05-05 18:13 16M
20260505T12Z_MSC_CAPS_SeaWaterSalinity_DBS-all_RLatLon0.03_PT024H.nc 2026-05-05 18:13 107M
20260505T12Z_MSC_CAPS_SeaWaterTemp_DBS-0.5m_RLatLon0.03_PT024H.nc 2026-05-05 18:13 14M
20260505T12Z_MSC_CAPS_SeaWaterTemp_DBS-all_RLatLon0.03_PT024H.nc 2026-05-05 18:13 88M
20260505T12Z_MSC_CAPS_SeaWaterVelocityX_DBS-0.5m_RLatLon0.03_PT024H.nc 2026-05-05 18:13 17M
20260505T12Z_MSC_CAPS_SeaWaterVelocityX_DBS-all_RLatLon0.03_PT024H.nc 2026-05-05 18:13 209M
20260505T12Z_MSC_CAPS_SeaWaterVelocityY_DBS-0.5m_RLatLon0.03_PT024H.nc 2026-05-05 18:13 18M
20260505T12Z_MSC_CAPS_SeaWaterVelocityY_DBS-all_RLatLon0.03_PT024H.nc 2026-05-05 18:13 217M
20260505T12Z_MSC_CAPS_SensibleHeatNetFlux_Sfc_RLatLon0.03_PT024H.grib2 2026-05-05 18:14 1.7M
20260505T12Z_MSC_CAPS_ShowalterIndex_IsbL-0500_RLatLon0.03_PT024H.grib2 2026-05-05 18:14 4.3M
20260505T12Z_MSC_CAPS_Snow-Accum_Sfc_RLatLon0.03_PT024H.grib2 2026-05-05 18:14 3.7M
20260505T12Z_MSC_CAPS_SnowDensity_Sfc_RLatLon0.03_PT024H.grib2 2026-05-05 18:14 1.3M
20260505T12Z_MSC_CAPS_SnowDepthWaterEquivalent_Sfc_RLatLon0.03_PT024H.grib2 2026-05-05 18:14 652K
20260505T12Z_MSC_CAPS_SnowDepth_Sfc_RLatLon0.03_PT024H.grib2 2026-05-05 18:14 1.1M
20260505T12Z_MSC_CAPS_SoilTemp_DBS-0to10cm_RLatLon0.03_PT024H.grib2 2026-05-05 18:14 1.6M
20260505T12Z_MSC_CAPS_SoilTemp_Sfc_RLatLon0.03_PT024H.grib2 2026-05-05 18:14 1.8M
20260505T12Z_MSC_CAPS_SoilVolumetricIceContent_Sfc_RLatLon0.03_PT024H.grib2 2026-05-05 18:14 1.4M
20260505T12Z_MSC_CAPS_SoilVolumetricWaterContent_DBS-0to10cm_RLatLon0.03_PT024H.grib2 2026-05-05 18:14 1.3M
20260505T12Z_MSC_CAPS_SoilVolumetricWaterContent_DBS-0to1cm_RLatLon0.03_PT024H.grib2 2026-05-05 18:14 1.7M
20260505T12Z_MSC_CAPS_SpecificHumidity_AGL-120m_RLatLon0.03_PT024H.grib2 2026-05-05 18:14 1.4M
20260505T12Z_MSC_CAPS_SpecificHumidity_AGL-2m_RLatLon0.03_PT024H.grib2 2026-05-05 18:14 1.8M
20260505T12Z_MSC_CAPS_SpecificHumidity_AGL-40m_RLatLon0.03_PT024H.grib2 2026-05-05 18:14 1.5M
20260505T12Z_MSC_CAPS_SpecificHumidity_AGL-80m_RLatLon0.03_PT024H.grib2 2026-05-05 18:14 1.5M
20260505T12Z_MSC_CAPS_SpecificHumidity_IsbL-0050_RLatLon0.03_PT024H.grib2 2026-05-05 18:14 915K
20260505T12Z_MSC_CAPS_SpecificHumidity_IsbL-0100_RLatLon0.03_PT024H.grib2 2026-05-05 18:14 1.0M
20260505T12Z_MSC_CAPS_SpecificHumidity_IsbL-0150_RLatLon0.03_PT024H.grib2 2026-05-05 18:14 889K
20260505T12Z_MSC_CAPS_SpecificHumidity_IsbL-0175_RLatLon0.03_PT024H.grib2 2026-05-05 18:14 884K
20260505T12Z_MSC_CAPS_SpecificHumidity_IsbL-0200_RLatLon0.03_PT024H.grib2 2026-05-05 18:14 893K
20260505T12Z_MSC_CAPS_SpecificHumidity_IsbL-0225_RLatLon0.03_PT024H.grib2 2026-05-05 18:14 1.1M
20260505T12Z_MSC_CAPS_SpecificHumidity_IsbL-0250_RLatLon0.03_PT024H.grib2 2026-05-05 18:14 1.1M
20260505T12Z_MSC_CAPS_SpecificHumidity_IsbL-0275_RLatLon0.03_PT024H.grib2 2026-05-05 18:14 1.1M
20260505T12Z_MSC_CAPS_SpecificHumidity_IsbL-0300_RLatLon0.03_PT024H.grib2 2026-05-05 18:14 1.1M
20260505T12Z_MSC_CAPS_SpecificHumidity_IsbL-0350_RLatLon0.03_PT024H.grib2 2026-05-05 18:14 1.0M
20260505T12Z_MSC_CAPS_SpecificHumidity_IsbL-0400_RLatLon0.03_PT024H.grib2 2026-05-05 18:14 1.2M
20260505T12Z_MSC_CAPS_SpecificHumidity_IsbL-0450_RLatLon0.03_PT024H.grib2 2026-05-05 18:14 1.1M
20260505T12Z_MSC_CAPS_SpecificHumidity_IsbL-0500_RLatLon0.03_PT024H.grib2 2026-05-05 18:14 1.3M
20260505T12Z_MSC_CAPS_SpecificHumidity_IsbL-0550_RLatLon0.03_PT024H.grib2 2026-05-05 18:14 1.3M
20260505T12Z_MSC_CAPS_SpecificHumidity_IsbL-0600_RLatLon0.03_PT024H.grib2 2026-05-05 18:14 1.4M
20260505T12Z_MSC_CAPS_SpecificHumidity_IsbL-0650_RLatLon0.03_PT024H.grib2 2026-05-05 18:14 1.5M
20260505T12Z_MSC_CAPS_SpecificHumidity_IsbL-0700_RLatLon0.03_PT024H.grib2 2026-05-05 18:14 1.7M
20260505T12Z_MSC_CAPS_SpecificHumidity_IsbL-0750_RLatLon0.03_PT024H.grib2 2026-05-05 18:14 1.5M
20260505T12Z_MSC_CAPS_SpecificHumidity_IsbL-0800_RLatLon0.03_PT024H.grib2 2026-05-05 18:14 1.6M
20260505T12Z_MSC_CAPS_SpecificHumidity_IsbL-0850_RLatLon0.03_PT024H.grib2 2026-05-05 18:14 1.8M
20260505T12Z_MSC_CAPS_SpecificHumidity_IsbL-0875_RLatLon0.03_PT024H.grib2 2026-05-05 18:14 1.8M
20260505T12Z_MSC_CAPS_SpecificHumidity_IsbL-0900_RLatLon0.03_PT024H.grib2 2026-05-05 18:14 1.9M
20260505T12Z_MSC_CAPS_SpecificHumidity_IsbL-0925_RLatLon0.03_PT024H.grib2 2026-05-05 18:14 2.0M
20260505T12Z_MSC_CAPS_SpecificHumidity_IsbL-0950_RLatLon0.03_PT024H.grib2 2026-05-05 18:14 1.6M
20260505T12Z_MSC_CAPS_SpecificHumidity_IsbL-0970_RLatLon0.03_PT024H.grib2 2026-05-05 18:14 1.7M
20260505T12Z_MSC_CAPS_SpecificHumidity_IsbL-0985_RLatLon0.03_PT024H.grib2 2026-05-05 18:14 1.7M
20260505T12Z_MSC_CAPS_SpecificHumidity_IsbL-1000_RLatLon0.03_PT024H.grib2 2026-05-05 18:14 1.8M
20260505T12Z_MSC_CAPS_SpecificHumidity_IsbL-1015_RLatLon0.03_PT024H.grib2 2026-05-05 18:14 1.8M
20260505T12Z_MSC_CAPS_SpecificHumidity_Sfc_RLatLon0.03_PT024H.grib2 2026-05-05 18:14 2.1M
20260505T12Z_MSC_CAPS_StormRelativeHelicity_Sfc_RLatLon0.03_PT024H.grib2 2026-05-05 18:14 3.2M
20260505T12Z_MSC_CAPS_Thickness_IsbL-1000to0500_RLatLon0.03_PT024H.grib2 2026-05-05 18:14 426K
20260505T12Z_MSC_CAPS_TotalCloudCover_Sfc_RLatLon0.03_PT024H.grib2 2026-05-05 18:14 3.7M
20260505T12Z_MSC_CAPS_TurboclineDepth_Sfc_RLatLon0.03_PT024H.nc 2026-05-05 18:13 16M
20260505T12Z_MSC_CAPS_UpwardLongwaveRadiationFlux_NTAtm_RLatLon0.03_PT024H.grib2 2026-05-05 18:14 3.0M
20260505T12Z_MSC_CAPS_UpwardShortwaveRadiationFlux_NTAtm_RLatLon0.03_PT024H.grib2 2026-05-05 18:14 2.2M
20260505T12Z_MSC_CAPS_VerticalVelocity_IsbL-0250_RLatLon0.03_PT024H.grib2 2026-05-05 18:14 1.2M
20260505T12Z_MSC_CAPS_VerticalVelocity_IsbL-0500_RLatLon0.03_PT024H.grib2 2026-05-05 18:14 1.1M
20260505T12Z_MSC_CAPS_VerticalVelocity_IsbL-0700_RLatLon0.03_PT024H.grib2 2026-05-05 18:14 1.3M
20260505T12Z_MSC_CAPS_VerticalVelocity_IsbL-0850_RLatLon0.03_PT024H.grib2 2026-05-05 18:14 1.5M
20260505T12Z_MSC_CAPS_VerticalVelocity_IsbL-1000_RLatLon0.03_PT024H.grib2 2026-05-05 18:14 1.5M
20260505T12Z_MSC_CAPS_WindDir_AGL-10m_RLatLon0.03_PT024H.grib2 2026-05-05 18:14 2.4M
20260505T12Z_MSC_CAPS_WindDir_AGL-120m_RLatLon0.03_PT024H.grib2 2026-05-05 18:14 1.2M
20260505T12Z_MSC_CAPS_WindDir_AGL-40m_RLatLon0.03_PT024H.grib2 2026-05-05 18:14 1.4M
20260505T12Z_MSC_CAPS_WindDir_AGL-80m_RLatLon0.03_PT024H.grib2 2026-05-05 18:14 1.3M
20260505T12Z_MSC_CAPS_WindDir_IsbL-0050_RLatLon0.03_PT024H.grib2 2026-05-05 18:14 1.1M
20260505T12Z_MSC_CAPS_WindDir_IsbL-0100_RLatLon0.03_PT024H.grib2 2026-05-05 18:14 1.0M
20260505T12Z_MSC_CAPS_WindDir_IsbL-0150_RLatLon0.03_PT024H.grib2 2026-05-05 18:14 1.0M
20260505T12Z_MSC_CAPS_WindDir_IsbL-0175_RLatLon0.03_PT024H.grib2 2026-05-05 18:14 1.0M
20260505T12Z_MSC_CAPS_WindDir_IsbL-0200_RLatLon0.03_PT024H.grib2 2026-05-05 18:14 1.2M
20260505T12Z_MSC_CAPS_WindDir_IsbL-0225_RLatLon0.03_PT024H.grib2 2026-05-05 18:14 1.1M
20260505T12Z_MSC_CAPS_WindDir_IsbL-0250_RLatLon0.03_PT024H.grib2 2026-05-05 18:14 1.1M
20260505T12Z_MSC_CAPS_WindDir_IsbL-0275_RLatLon0.03_PT024H.grib2 2026-05-05 18:14 1.1M
20260505T12Z_MSC_CAPS_WindDir_IsbL-0300_RLatLon0.03_PT024H.grib2 2026-05-05 18:14 1.1M
20260505T12Z_MSC_CAPS_WindDir_IsbL-0350_RLatLon0.03_PT024H.grib2 2026-05-05 18:14 1.1M
20260505T12Z_MSC_CAPS_WindDir_IsbL-0400_RLatLon0.03_PT024H.grib2 2026-05-05 18:14 1.2M
20260505T12Z_MSC_CAPS_WindDir_IsbL-0450_RLatLon0.03_PT024H.grib2 2026-05-05 18:14 1.2M
20260505T12Z_MSC_CAPS_WindDir_IsbL-0500_RLatLon0.03_PT024H.grib2 2026-05-05 18:14 1.3M
20260505T12Z_MSC_CAPS_WindDir_IsbL-0550_RLatLon0.03_PT024H.grib2 2026-05-05 18:14 1.3M
20260505T12Z_MSC_CAPS_WindDir_IsbL-0600_RLatLon0.03_PT024H.grib2 2026-05-05 18:14 1.4M
20260505T12Z_MSC_CAPS_WindDir_IsbL-0650_RLatLon0.03_PT024H.grib2 2026-05-05 18:14 1.4M
20260505T12Z_MSC_CAPS_WindDir_IsbL-0700_RLatLon0.03_PT024H.grib2 2026-05-05 18:14 1.5M
20260505T12Z_MSC_CAPS_WindDir_IsbL-0750_RLatLon0.03_PT024H.grib2 2026-05-05 18:14 1.6M
20260505T12Z_MSC_CAPS_WindDir_IsbL-0800_RLatLon0.03_PT024H.grib2 2026-05-05 18:14 1.7M
20260505T12Z_MSC_CAPS_WindDir_IsbL-0850_RLatLon0.03_PT024H.grib2 2026-05-05 18:14 1.8M
20260505T12Z_MSC_CAPS_WindDir_IsbL-0875_RLatLon0.03_PT024H.grib2 2026-05-05 18:14 1.9M
20260505T12Z_MSC_CAPS_WindDir_IsbL-0900_RLatLon0.03_PT024H.grib2 2026-05-05 18:14 1.9M
20260505T12Z_MSC_CAPS_WindDir_IsbL-0925_RLatLon0.03_PT024H.grib2 2026-05-05 18:14 2.0M
20260505T12Z_MSC_CAPS_WindDir_IsbL-0950_RLatLon0.03_PT024H.grib2 2026-05-05 18:14 2.1M
20260505T12Z_MSC_CAPS_WindDir_IsbL-0970_RLatLon0.03_PT024H.grib2 2026-05-05 18:14 2.1M
20260505T12Z_MSC_CAPS_WindDir_IsbL-0985_RLatLon0.03_PT024H.grib2 2026-05-05 18:14 2.2M
20260505T12Z_MSC_CAPS_WindDir_IsbL-1000_RLatLon0.03_PT024H.grib2 2026-05-05 18:14 2.3M
20260505T12Z_MSC_CAPS_WindDir_IsbL-1015_RLatLon0.03_PT024H.grib2 2026-05-05 18:14 2.4M
20260505T12Z_MSC_CAPS_WindGust-Max_AGL-10m_RLatLon0.03_PT024H.grib2 2026-05-05 18:14 2.5M
20260505T12Z_MSC_CAPS_WindGust-Min_AGL-10m_RLatLon0.03_PT024H.grib2 2026-05-05 18:14 2.4M
20260505T12Z_MSC_CAPS_WindGust_AGL-10m_RLatLon0.03_PT024H.grib2 2026-05-05 18:14 2.6M
20260505T12Z_MSC_CAPS_WindSpeed_AGL-10m_RLatLon0.03_PT024H.grib2 2026-05-05 18:14 2.2M
20260505T12Z_MSC_CAPS_WindSpeed_AGL-120m_RLatLon0.03_PT024H.grib2 2026-05-05 18:14 1.2M
20260505T12Z_MSC_CAPS_WindSpeed_AGL-40m_RLatLon0.03_PT024H.grib2 2026-05-05 18:14 1.6M
20260505T12Z_MSC_CAPS_WindSpeed_AGL-80m_RLatLon0.03_PT024H.grib2 2026-05-05 18:14 1.2M
20260505T12Z_MSC_CAPS_WindSpeed_IsbL-0050_RLatLon0.03_PT024H.grib2 2026-05-05 18:14 959K
20260505T12Z_MSC_CAPS_WindSpeed_IsbL-0100_RLatLon0.03_PT024H.grib2 2026-05-05 18:14 1.3M
20260505T12Z_MSC_CAPS_WindSpeed_IsbL-0150_RLatLon0.03_PT024H.grib2 2026-05-05 18:14 1.0M
20260505T12Z_MSC_CAPS_WindSpeed_IsbL-0175_RLatLon0.03_PT024H.grib2 2026-05-05 18:14 1.2M
20260505T12Z_MSC_CAPS_WindSpeed_IsbL-0200_RLatLon0.03_PT024H.grib2 2026-05-05 18:14 1.2M
20260505T12Z_MSC_CAPS_WindSpeed_IsbL-0225_RLatLon0.03_PT024H.grib2 2026-05-05 18:14 966K
20260505T12Z_MSC_CAPS_WindSpeed_IsbL-0250_RLatLon0.03_PT024H.grib2 2026-05-05 18:14 1.0M
20260505T12Z_MSC_CAPS_WindSpeed_IsbL-0275_RLatLon0.03_PT024H.grib2 2026-05-05 18:14 1.0M
20260505T12Z_MSC_CAPS_WindSpeed_IsbL-0300_RLatLon0.03_PT024H.grib2 2026-05-05 18:14 1.0M
20260505T12Z_MSC_CAPS_WindSpeed_IsbL-0350_RLatLon0.03_PT024H.grib2 2026-05-05 18:14 1.0M
20260505T12Z_MSC_CAPS_WindSpeed_IsbL-0400_RLatLon0.03_PT024H.grib2 2026-05-05 18:14 1.1M
20260505T12Z_MSC_CAPS_WindSpeed_IsbL-0450_RLatLon0.03_PT024H.grib2 2026-05-05 18:14 1.0M
20260505T12Z_MSC_CAPS_WindSpeed_IsbL-0500_RLatLon0.03_PT024H.grib2 2026-05-05 18:14 1.0M
20260505T12Z_MSC_CAPS_WindSpeed_IsbL-0550_RLatLon0.03_PT024H.grib2 2026-05-05 18:14 1.4M
20260505T12Z_MSC_CAPS_WindSpeed_IsbL-0600_RLatLon0.03_PT024H.grib2 2026-05-05 18:14 1.4M
20260505T12Z_MSC_CAPS_WindSpeed_IsbL-0650_RLatLon0.03_PT024H.grib2 2026-05-05 18:14 1.4M
20260505T12Z_MSC_CAPS_WindSpeed_IsbL-0700_RLatLon0.03_PT024H.grib2 2026-05-05 18:14 1.5M
20260505T12Z_MSC_CAPS_WindSpeed_IsbL-0750_RLatLon0.03_PT024H.grib2 2026-05-05 18:14 1.6M
20260505T12Z_MSC_CAPS_WindSpeed_IsbL-0800_RLatLon0.03_PT024H.grib2 2026-05-05 18:14 1.7M
20260505T12Z_MSC_CAPS_WindSpeed_IsbL-0850_RLatLon0.03_PT024H.grib2 2026-05-05 18:14 1.8M
20260505T12Z_MSC_CAPS_WindSpeed_IsbL-0875_RLatLon0.03_PT024H.grib2 2026-05-05 18:14 1.8M
20260505T12Z_MSC_CAPS_WindSpeed_IsbL-0900_RLatLon0.03_PT024H.grib2 2026-05-05 18:14 1.9M
20260505T12Z_MSC_CAPS_WindSpeed_IsbL-0925_RLatLon0.03_PT024H.grib2 2026-05-05 18:14 1.9M
20260505T12Z_MSC_CAPS_WindSpeed_IsbL-0950_RLatLon0.03_PT024H.grib2 2026-05-05 18:14 2.0M
20260505T12Z_MSC_CAPS_WindSpeed_IsbL-0970_RLatLon0.03_PT024H.grib2 2026-05-05 18:14 2.1M
20260505T12Z_MSC_CAPS_WindSpeed_IsbL-0985_RLatLon0.03_PT024H.grib2 2026-05-05 18:14 2.1M
20260505T12Z_MSC_CAPS_WindSpeed_IsbL-1000_RLatLon0.03_PT024H.grib2 2026-05-05 18:14 2.1M
20260505T12Z_MSC_CAPS_WindSpeed_IsbL-1015_RLatLon0.03_PT024H.grib2 2026-05-05 18:14 2.1M
20260505T12Z_MSC_CAPS_WindU_AGL-10m_RLatLon0.03_PT024H.grib2 2026-05-05 18:14 2.1M
20260505T12Z_MSC_CAPS_WindU_AGL-120m_RLatLon0.03_PT024H.grib2 2026-05-05 18:14 1.2M
20260505T12Z_MSC_CAPS_WindU_AGL-40m_RLatLon0.03_PT024H.grib2 2026-05-05 18:14 1.2M
20260505T12Z_MSC_CAPS_WindU_AGL-80m_RLatLon0.03_PT024H.grib2 2026-05-05 18:14 1.2M
20260505T12Z_MSC_CAPS_WindU_IsbL-0050_RLatLon0.03_PT024H.grib2 2026-05-05 18:14 721K
20260505T12Z_MSC_CAPS_WindU_IsbL-0100_RLatLon0.03_PT024H.grib2 2026-05-05 18:14 966K
20260505T12Z_MSC_CAPS_WindU_IsbL-0150_RLatLon0.03_PT024H.grib2 2026-05-05 18:14 925K
20260505T12Z_MSC_CAPS_WindU_IsbL-0175_RLatLon0.03_PT024H.grib2 2026-05-05 18:14 954K
20260505T12Z_MSC_CAPS_WindU_IsbL-0200_RLatLon0.03_PT024H.grib2 2026-05-05 18:14 888K
20260505T12Z_MSC_CAPS_WindU_IsbL-0225_RLatLon0.03_PT024H.grib2 2026-05-05 18:14 909K
20260505T12Z_MSC_CAPS_WindU_IsbL-0250_RLatLon0.03_PT024H.grib2 2026-05-05 18:14 922K
20260505T12Z_MSC_CAPS_WindU_IsbL-0275_RLatLon0.03_PT024H.grib2 2026-05-05 18:14 717K
20260505T12Z_MSC_CAPS_WindU_IsbL-0300_RLatLon0.03_PT024H.grib2 2026-05-05 18:14 722K
20260505T12Z_MSC_CAPS_WindU_IsbL-0350_RLatLon0.03_PT024H.grib2 2026-05-05 18:14 735K
20260505T12Z_MSC_CAPS_WindU_IsbL-0400_RLatLon0.03_PT024H.grib2 2026-05-05 18:14 962K
20260505T12Z_MSC_CAPS_WindU_IsbL-0450_RLatLon0.03_PT024H.grib2 2026-05-05 18:14 1.0M
20260505T12Z_MSC_CAPS_WindU_IsbL-0500_RLatLon0.03_PT024H.grib2 2026-05-05 18:14 1.0M
20260505T12Z_MSC_CAPS_WindU_IsbL-0550_RLatLon0.03_PT024H.grib2 2026-05-05 18:14 1.0M
20260505T12Z_MSC_CAPS_WindU_IsbL-0600_RLatLon0.03_PT024H.grib2 2026-05-05 18:14 957K
20260505T12Z_MSC_CAPS_WindU_IsbL-0650_RLatLon0.03_PT024H.grib2 2026-05-05 18:14 1.0M
20260505T12Z_MSC_CAPS_WindU_IsbL-0700_RLatLon0.03_PT024H.grib2 2026-05-05 18:14 1.0M
20260505T12Z_MSC_CAPS_WindU_IsbL-0750_RLatLon0.03_PT024H.grib2 2026-05-05 18:14 1.1M
20260505T12Z_MSC_CAPS_WindU_IsbL-0800_RLatLon0.03_PT024H.grib2 2026-05-05 18:14 1.2M
20260505T12Z_MSC_CAPS_WindU_IsbL-0850_RLatLon0.03_PT024H.grib2 2026-05-05 18:14 1.2M
20260505T12Z_MSC_CAPS_WindU_IsbL-0875_RLatLon0.03_PT024H.grib2 2026-05-05 18:14 1.3M
20260505T12Z_MSC_CAPS_WindU_IsbL-0900_RLatLon0.03_PT024H.grib2 2026-05-05 18:14 1.3M
20260505T12Z_MSC_CAPS_WindU_IsbL-0925_RLatLon0.03_PT024H.grib2 2026-05-05 18:14 1.4M
20260505T12Z_MSC_CAPS_WindU_IsbL-0950_RLatLon0.03_PT024H.grib2 2026-05-05 18:14 1.4M
20260505T12Z_MSC_CAPS_WindU_IsbL-0970_RLatLon0.03_PT024H.grib2 2026-05-05 18:14 1.8M
20260505T12Z_MSC_CAPS_WindU_IsbL-0985_RLatLon0.03_PT024H.grib2 2026-05-05 18:14 1.9M
20260505T12Z_MSC_CAPS_WindU_IsbL-1000_RLatLon0.03_PT024H.grib2 2026-05-05 18:14 1.9M
20260505T12Z_MSC_CAPS_WindU_IsbL-1015_RLatLon0.03_PT024H.grib2 2026-05-05 18:14 2.1M
20260505T12Z_MSC_CAPS_WindV_AGL-10m_RLatLon0.03_PT024H.grib2 2026-05-05 18:14 2.1M
20260505T12Z_MSC_CAPS_WindV_AGL-120m_RLatLon0.03_PT024H.grib2 2026-05-05 18:14 1.2M
20260505T12Z_MSC_CAPS_WindV_AGL-40m_RLatLon0.03_PT024H.grib2 2026-05-05 18:14 1.3M
20260505T12Z_MSC_CAPS_WindV_AGL-80m_RLatLon0.03_PT024H.grib2 2026-05-05 18:14 1.2M
20260505T12Z_MSC_CAPS_WindV_IsbL-0050_RLatLon0.03_PT024H.grib2 2026-05-05 18:14 1.0M
20260505T12Z_MSC_CAPS_WindV_IsbL-0100_RLatLon0.03_PT024H.grib2 2026-05-05 18:14 792K
20260505T12Z_MSC_CAPS_WindV_IsbL-0150_RLatLon0.03_PT024H.grib2 2026-05-05 18:14 914K
20260505T12Z_MSC_CAPS_WindV_IsbL-0175_RLatLon0.03_PT024H.grib2 2026-05-05 18:14 726K
20260505T12Z_MSC_CAPS_WindV_IsbL-0200_RLatLon0.03_PT024H.grib2 2026-05-05 18:14 875K
20260505T12Z_MSC_CAPS_WindV_IsbL-0225_RLatLon0.03_PT024H.grib2 2026-05-05 18:14 894K
20260505T12Z_MSC_CAPS_WindV_IsbL-0250_RLatLon0.03_PT024H.grib2 2026-05-05 18:14 703K
20260505T12Z_MSC_CAPS_WindV_IsbL-0275_RLatLon0.03_PT024H.grib2 2026-05-05 18:14 709K
20260505T12Z_MSC_CAPS_WindV_IsbL-0300_RLatLon0.03_PT024H.grib2 2026-05-05 18:14 716K
20260505T12Z_MSC_CAPS_WindV_IsbL-0350_RLatLon0.03_PT024H.grib2 2026-05-05 18:14 731K
20260505T12Z_MSC_CAPS_WindV_IsbL-0400_RLatLon0.03_PT024H.grib2 2026-05-05 18:14 737K
20260505T12Z_MSC_CAPS_WindV_IsbL-0450_RLatLon0.03_PT024H.grib2 2026-05-05 18:14 1.0M
20260505T12Z_MSC_CAPS_WindV_IsbL-0500_RLatLon0.03_PT024H.grib2 2026-05-05 18:14 1.0M
20260505T12Z_MSC_CAPS_WindV_IsbL-0550_RLatLon0.03_PT024H.grib2 2026-05-05 18:14 1.0M
20260505T12Z_MSC_CAPS_WindV_IsbL-0600_RLatLon0.03_PT024H.grib2 2026-05-05 18:14 1.0M
20260505T12Z_MSC_CAPS_WindV_IsbL-0650_RLatLon0.03_PT024H.grib2 2026-05-05 18:14 1.0M
20260505T12Z_MSC_CAPS_WindV_IsbL-0700_RLatLon0.03_PT024H.grib2 2026-05-05 18:14 1.0M
20260505T12Z_MSC_CAPS_WindV_IsbL-0750_RLatLon0.03_PT024H.grib2 2026-05-05 18:14 1.1M
20260505T12Z_MSC_CAPS_WindV_IsbL-0800_RLatLon0.03_PT024H.grib2 2026-05-05 18:14 1.2M
20260505T12Z_MSC_CAPS_WindV_IsbL-0850_RLatLon0.03_PT024H.grib2 2026-05-05 18:14 1.2M
20260505T12Z_MSC_CAPS_WindV_IsbL-0875_RLatLon0.03_PT024H.grib2 2026-05-05 18:14 1.3M
20260505T12Z_MSC_CAPS_WindV_IsbL-0900_RLatLon0.03_PT024H.grib2 2026-05-05 18:14 1.3M
20260505T12Z_MSC_CAPS_WindV_IsbL-0925_RLatLon0.03_PT024H.grib2 2026-05-05 18:14 1.4M
20260505T12Z_MSC_CAPS_WindV_IsbL-0950_RLatLon0.03_PT024H.grib2 2026-05-05 18:14 1.4M
20260505T12Z_MSC_CAPS_WindV_IsbL-0970_RLatLon0.03_PT024H.grib2 2026-05-05 18:14 1.5M
20260505T12Z_MSC_CAPS_WindV_IsbL-0985_RLatLon0.03_PT024H.grib2 2026-05-05 18:14 1.5M
20260505T12Z_MSC_CAPS_WindV_IsbL-1000_RLatLon0.03_PT024H.grib2 2026-05-05 18:14 1.9M
20260505T12Z_MSC_CAPS_WindV_IsbL-1015_RLatLon0.03_PT024H.grib2 2026-05-05 18:14 2.1M